Starlink 1504

operational
NORAD ID: 45746 Int'l Des: 2020-038 Owner: SPXS Country: US Constellation: starlink
LEOCIRCULAR

Starlink 1504について

説明を読み込み中...

リアルタイム位置

3D地球を読み込み中...

次回通過

高度履歴

Altitude vs Time

uPlot chart will show altitude changes over time

軌道要素

1 45746U 20038S 25352.76939209 .00103940 00000-0 20916-2 0 9998
2 45746 53.0264 170.7577 0002887 118.9652 241.1644 15.45797505304961
Epoch: Dec 18, 2025 • Age: 10 hours

現在のステータス

高度 443.3 km
速度 7.65 km/s
衛星直下点 -41.41°S, 129.87°W
打ち上げ日 Jun 13, 2020
運用期間 5.5 years
タイプ internet

技術仕様

分類 Payload
質量 260.00 kg
乾燥質量 248.00 kg
総質量 260.00 kg
長さ 0.20 m
直径 2.80 m
スパン 9.00 m
形状 Box + pan
製造者 SPXS
バスタイプ Starlink
フェーズステータス In Orbit
所有者/国 SPXS/US

大規模コンステレーション

Loading constellations...